KC4QLP Weather Reports


time (UTC)temp
F
wind
direction
speed
knots
gust
knots
rain 1hr
in
rain 24hr
in
rain mn
in
humidity
%
barometer
mb
20260510173002 62 285 0.9 12.2 0.00 0.09 0.09 46 1010.7
20260510170001 61 295 2.6 10.4 0.00 0.09 0.09 48 1010.4
20260510163001 60 227 6.1 10.4 0.00 0.09 0.09 60 1010.5
20260510160001 57 231 2.6 8.7 0.00 0.10 0.09 64 1010.6
20260510153002 56 295 2.6 8.7 0.00 0.11 0.09 72 1010.3
20260510150001 53 205 0.9 2.6 0.00 0.14 0.09 86 1010.3
20260510143003 49 250 0.0 0.0 0.00 0.18 0.09 85 1010.2
20260510140001 49 75 0.0 5.2 0.00 0.23 0.09 84 1009.9
20260510133001 50 247 0.0 7.8 0.01 0.25 0.09 84 1009.7
20260510130001 50 210 0.0 3.5 0.01 0.27 0.09 84 1008.9
20260510123002 46 208 0.0 0.0 0.00 0.27 0.08 85 1008.4
20260510120003 46 208 0.0 0.0 0.00 0.30 0.08 85 1007.7
20260510113002 46 208 0.0 0.0 0.00 0.30 0.08 85 1007.5
20260510110002 46 208 0.0 0.0 0.00 0.30 0.08 85 1007.0
20260510103003 46 208 0.0 0.0 0.00 0.30 0.08 85 1006.8
20260510100002 44 208 0.0 0.9 0.00 0.30 0.08 85 1006.2
20260510093002 44 208 0.0 1.7 0.00 0.30 0.08 85 1006.0
20260510090002 44 165 0.0 0.0 0.00 0.30 0.08 85 1005.9
20260510083002 45 165 0.0 0.9 0.00 0.30 0.08 85 1005.5
20260510080002 47 210 0.0 0.0 0.00 0.30 0.08 84 1005.7
20260510073002 48 210 0.0 0.0 0.00 0.30 0.08 84 1005.7
20260510070002 48 210 0.0 0.0 0.00 0.30 0.08 84 1005.3
20260510063017 48 210 0.0 0.9 0.06 0.30 0.08 84 1005.7
20260510060002 48 117 0.9 0.9 0.07 0.30 0.08 84 1005.4
20260510053002 48 257 0.0 0.0 0.02 0.24 0.02 84 1006.8
20260510050002 47 257 0.0 0.0 0.01 0.23 0.01 85 1006.2
20260510043002 46 257 0.0 0.9 0.00 0.22 0.00 85 1005.9
20260510040002 45 207 0.0 1.7 0.00 0.22 0.00 85 1005.4
20260510033002 46 214 0.0 1.7 0.00 0.22 0.22 85 1005.3
20260510030002 46 201 0.0 1.7 0.00 0.22 0.22 85 1005.3
20260510023002 47 217 0.0 0.9 0.00 0.22 0.22 85 1005.0
20260510020003 47 217 0.0 0.9 0.00 0.22 0.22 85 1005.3
20260510013002 47 217 0.0 1.7 0.00 0.22 0.22 85 1005.0
20260510010018 48 194 0.0 0.9 0.00 0.22 0.22 86 1004.7
20260510003003 50 142 0.0 0.9 0.00 0.22 0.22 86 1004.5
20260510000002 51 142 0.0 0.0 0.00 0.22 0.22 85 1004.6
20260509233002 51 142 0.0 0.0 0.00 0.22 0.22 85 1004.4
20260509230003 52 141 0.0 0.9 0.00 0.22 0.22 86 1004.2
20260509223003 52 142 0.0 0.9 0.00 0.22 0.22 87 1004.1
20260509220003 52 93 0.0 1.7 0.00 0.22 0.22 88 1004.2
20260509213003 52 92 1.7 2.6 0.00 0.22 0.22 86 1004.5
20260509210003 51 89 0.0 2.6 0.00 0.22 0.22 86 1004.9
20260509203004 51 96 2.6 2.6 0.00 0.22 0.22 86 1005.1
20260509200004 51 97 0.0 2.6 0.00 0.22 0.22 86 1005.1
20260509193003 50 109 0.0 0.9 0.00 0.22 0.22 86 1005.6
20260509190005 50 149 0.0 0.0 0.00 0.22 0.22 85 1005.8
20260509183018 50 150 0.0 0.0 0.00 0.22 0.22 85 1005.9
20260509180003 49 148 0.0 1.7 0.00 0.22 0.22 85 1005.9